This is the latest recevied weather packets stored in our database for station/object NC4M. If no packets are shown the sender has not sent any weather packets the latest 10 day(s).
| Time | Temp. | Humidity | Pressure | Rain* | Wind** | Luminosity | Snow |
|---|---|---|---|---|---|---|---|
| 1778108306 | 15.56° C | 42% | 1016.2 hPa | 0 mm | - | 58 W/m² | - |
| 1778108004 | 15° C | 45% | 1016.1 hPa | 0 mm | - | 76 W/m² | - |
| 1778107701 | 15° C | 42% | 1016 hPa | 0 mm | - | 120 W/m² | - |
| 1778107398 | 15.56° C | 42% | 1016 hPa | 0 mm | - | 49 W/m² | - |
| 1778107094 | 15.56° C | 41% | 1016 hPa | 0 mm | - | 70 W/m² | - |
| 1778106789 | 16.11° C | 40% | 1016.1 hPa | 0 mm | - | 55 W/m² | - |
| 1778106487 | 16.11° C | 42% | 1016 hPa | 0 mm | - | 117 W/m² | - |
| 1778106182 | 16.67° C | 39% | 1016 hPa | 0 mm | - | 424 W/m² | - |
| 1778105880 | 16.11° C | 38% | 1016.1 hPa | 0 mm | - | 437 W/m² | - |
| 1778105578 | 15.56° C | 43% | 1016.1 hPa | 0 mm | - | 430 W/m² | - |
| 1778105276 | 15.56° C | 44% | 1016.2 hPa | 0 mm | - | 251 W/m² | - |
| 1778104976 | 16.11° C | 43% | 1016.1 hPa | 0 mm | - | 85 W/m² | - |
| 1778104673 | 16.11° C | 41% | 1016.1 hPa | 0 mm | - | 406 W/m² | - |
| 1778104369 | 16.67° C | 41% | 1016.1 hPa | 0 mm | - | 445 W/m² | - |
| 1778104065 | 16.67° C | 38% | 1016.1 hPa | 0 mm | - | 390 W/m² | - |
| 1778103762 | 16.67° C | 40% | 1016 hPa | 0 mm | - | 304 W/m² | - |
| 1778103461 | 16.11° C | 42% | 1016.1 hPa | 0 mm | - | 511 W/m² | - |
| 1778103157 | 16.67° C | 38% | 1016.4 hPa | 0 mm | - | 529 W/m² | - |
| 1778102855 | 16.67° C | 38% | 1016.1 hPa | 0 mm | - | 553 W/m² | - |
| 1778102550 | 17.22° C | 45% | 1016.1 hPa | 0 mm | - | 590 W/m² | - |
| 1778102245 | 16.67° C | 41% | 1016.2 hPa | 0 mm | - | 654 W/m² | - |
| 1778101942 | 15.56° C | 42% | 1016.3 hPa | 0 mm | - | 667 W/m² | - |
| 1778101639 | 15.56° C | 43% | 1016.4 hPa | 0 mm | - | 118 W/m² | - |
| 1778101336 | 15.56° C | 44% | 1016.6 hPa | 0 mm | - | 146 W/m² | - |
| 1778101033 | 15° C | 48% | 1016.4 hPa | 0 mm | - | 121 W/m² | - |
* Rain latest hour (hover to see other rain measurements)
** Current wind speed in m/s (hover to see current wind gust speed)